Regional Weather Roundup
Issued by NWS

Home | Current Version | Previous Version | Text Only | Print | Product List | Glossary Off
Versions: 1 2 3 4 5 6 7 8 9 10 11 12 13 14 15 16 17 18 19 20 21 22 23 24 25 26 27 28 29 30 31 32 33 34 35 36 37 38 39 40 41 42 43 44 45 46 47 48 49 50

703
ASUS43 KMKX 190200
RWRWI

WISCONSIN REGIONAL WEATHER ROUNDUP
NATIONAL WEATHER SERVICE MILWAUKEE/SULLIVAN WI
900 PM CDT WED OCT 18 2017

NOTE: "FAIR" INDICATES FEW OR NO CLOUDS BELOW 12,000 FEET WITH NO
SIGNIFICANT WEATHER AND/OR OBSTRUCTIONS TO VISIBILITY.

WIZ001-002-006>008-014>016-023>028-190300-
NORTHWEST WISCONSIN

CITY           SKY/WX    TMP DP  RH WIND       PRES   REMARKS
SUPERIOR ARPT  CLOUDY    56  20  24 W13       29.83R
ASHLAND        CLOUDY    54  22  28 SW12      29.81R
HAYWARD        PTCLDY    57  19  22 W7        29.87R
SIREN          CLOUDY    55  20  26 W12       29.90S
CUMBERLAND     CLEAR     52  23  32 W9        29.91R
RICE LAKE      CLEAR     57  21  25 W8        29.91R
CHETEK         CLEAR     57  25  28 W8        29.90R
LADYSMITH      CLOUDY    58  29  34 W14G20    29.88R
EAU CLAIRE     NOT AVBL
MENOMONIE      CLOUDY    59  27  30 W10       29.93R
NEW RICHMOND   NOT AVBL
OSCEOLA        PTCLDY    56  23  28 W10G18    29.96S
$$

WIZ003>005-009-010-017-018-190300-
NORTH CENTRAL WISCONSIN

CITY           SKY/WX    TMP DP  RH WIND       PRES   REMARKS
MANITOWISH WTR CLEAR     57  42  56 W9        29.80R
ARBOR VITAE    CLEAR     59  43  55 W8        29.81R
WOODRUFF       CLEAR     59  43  55 W8        29.81R
RHINELANDER    CLEAR     60  45  57 W13       29.83R
EAGLE RIVER    CLEAR     58  42  55 SW13      29.79S
LAND O LAKES   CLEAR     59  43  54 W5        29.80S
PHILLIPS       CLOUDY    58  40  51 W7G20     29.83R
TOMAHAWK       CLEAR     59  44  56 SW6       29.84S
MEDFORD        PTCLDY    58  46  63 SW9       29.86S
MERRILL        CLEAR     61  47  61 W12       29.85S
$$

WIZ029-030-035-036-043>047-190300-
CENTRAL WISCONSIN

CITY           SKY/WX    TMP DP  RH WIND       PRES   REMARKS
WAUSAU         CLEAR     62  46  55 SW16G26   29.84S
MOSINEE        PTCLDY    55  48  76 SW8       29.88R
MARSHFIELD     CLEAR     58  46  64 SW10      29.88R
STEVENS POINT  CLEAR     59  46  63 SW6       29.89R
WAUPACA        CLEAR     63  47  55 S9G16     29.88S
WAUTOMA        CLEAR     62  47  57 SW8         N/A
WISC RAPIDS    CLEAR     61  48  62 SW9       29.90R
CAMP DOUGLAS   NOT AVBL
$$

WIZ011>013-019>022-031-037>040-048>050-190300-
NORTHEAST WISCONSIN

CITY           SKY/WX    TMP DP  RH WIND       PRES   REMARKS
ANTIGO         CLEAR     58  48  68 SW9       29.85R
SHAWANO        CLEAR     65  46  50 SW7       29.84S
OCONTO         CLEAR     65  46  50 SW9G17    29.82F
STURGEON BAY   CLEAR     63  45  51 SW18      29.83F
GREEN BAY      CLEAR     63  46  54 SW15      29.86F
MANITOWOC      CLEAR     64  44  48 SW14G21   29.90F
APPLETON       PTCLDY    61  39  44 SW16G23   29.87F
CLINTONVILLE   CLEAR     63  45  51 SW13G18   29.85F
OSHKOSH        CLEAR     61  45  55 SW15G22   29.90F
$$

WIZ032>034-041-042-053>061-190300-
SOUTHWEST WISCONSIN

CITY           SKY/WX    TMP DP  RH WIND       PRES   REMARKS
LA CROSSE      CLEAR     62  48  60 SW8       29.93R
SPARTA         CLEAR     53  47  81 W3        29.93R
VIROQUA        CLEAR     60  48  65 SW6       29.95S
BOSCOBEL       CLEAR     62  47  57 S6        29.96S
PRAIRIE DU CHI CLEAR     64  46  52 CALM      29.97R
PLATTEVILLE    CLEAR     57  48  72 S8        30.00S
$$

WIZ056-057-062-063-064-067-068-190300-
SOUTH CENTRAL WISCONSIN

CITY           SKY/WX    TMP DP  RH WIND       PRES   REMARKS
REEDSBURG      PTCLDY    64  47  54 SW14G20   29.93F
BARABOO/DELLS  PTCLDY    62  45  52 SW14      29.94S
LONE ROCK      PTCLDY    63  48  58 VRB3      29.96S
MINERAL POINT  CLOUDY    61  46  59 S10       29.99F
MADISON        CLEAR     64  44  48 S9        29.97S
MIDDLETON      CLEAR     63  44  50 SW8       29.97F
WATERTOWN      CLEAR     56  44  64 S5        29.98R
MONROE         CLEAR     57  43  58 SW10      30.01R
JANESVILLE     CLEAR     61  43  51 SW6       30.01R
$$

WIZ051-052-058>065-066-070>072-190300-
SOUTHEAST WISCONSIN

CITY           SKY/WX    TMP DP  RH WIND       PRES   REMARKS
MILWAUKEE      PTCLDY    63  43  48 SW14      29.99R
WAUKESHA       CLEAR     61  39  44 SW10      30.00R
MILWAUKEE/TIMM CLEAR     63  37  39 SW9       29.99R
RACINE         CLEAR     62  42  47 SW8       30.01R
BURLINGTON     CLEAR     56  45  64 SW8       30.00R
KENOSHA        CLEAR     62  41  46 SW12      30.00R
FOND DU LAC    CLEAR     63  42  46 SW10G20   29.93S
SHEBOYGAN      CLEAR     62  45  53 SW15      29.93S
WEST BEND      CLEAR     61  41  48 SW15G22   29.95S
JUNEAU         CLEAR     57  44  61 S6        29.97S
$$

LSZ147-162-190300-
LAKE SUPERIOR

STATION/POSITION TIME  TEMP    WIND        PRES    WAVE
                       AIR SEA DIR/SP/G            HT/PER
                 (UTC) (F)     (DEG/KT/KT) (MB)    (FT/S)
W MID LAKE BUOY  0050   58 53              1005.2R   6/ 6
DEVILS ISLAND    0100   59     270/ 23/ 26 1007.6R
PORT WING        0000          240/ 11/ 24 1008.5
SAXON HARBOR     0130   60     230/  7/ 11 1008.5R
$$

LMZ867-665-643>646-190300-
LAKE MICHIGAN

STATION/POSITION TIME  TEMP    WIND        PRES    WAVE
                       AIR SEA DIR/SP/G            HT/PER
                 (UTC) (F)     (DEG/KT/KT) (MB)    (FT/S)
S GREEN BAY BUOY 0130   63 58  200/ 19/ 25 1010.0F
N MID LAKE BUOY  0050   62 59  190/ 27/ 33 1009.5F  14/ 9
NORTHPORT PIER   0140   60     170/  7/ 16 1009.1F
KEWAUNEE LAKESHO 0124   59     190/  9/ 10 1011.1
SHEBOYGAN LAKESH 0100   65     200/ 17/ 19 1013.2R
PORT WASHINGTON  0140   65     220/  8/ 13 1015.2R
ATWATER BUOY     0009   64 52  200/ 12/ 16 1014.8R
MILWAUKEE LAKESH 0130   65     220/ 13/ 15   N/A
S MID LAKE BUOY  0050   63 61  200/ 19/ 23 1015.5F   4/ 5
KENOSHA   LAKESH 0100   65     200/ 10/ 14 1015.2
$$

TC  - TEMPERATURE IN CELSIUS
VSB - VISIBILITY IN STATUTE MILES
WCI - WIND CHILL INDEX
HX  - HEAT INDEX





USA.gov is the U.S. government's official web portal to all federal, state and local government web resources and services.